Weather History For Prescott AZ
This page updates 5 minutes after midnight. GMT -7
Station: KPRC0 Rows: 26
| Year | Date | Temp (°F) | Tmin (°F) | Tmax (°F) | RH% | Prcp | Snow | Wind | Gust | Pres | Sun | Cloud |
|---|---|---|---|---|---|---|---|---|---|---|---|---|
| 2000 | 2000-03-11 | 44.4 | 26.1 | 64.0 | 49 | — | — | 8.1 | — | 30.19 | — | 0 |
| 2001 | 2001-03-11 | 36.7 | 32.0 | 41.0 | 76 | — | — | 13.2 | — | 29.82 | — | 8 |
| 2002 | 2002-03-11 | 50.0 | 32.0 | 64.4 | 21 | — | — | 8.6 | — | 30.06 | — | 0 |
| 2003 | 2003-03-11 | 52.0 | 33.8 | 68.0 | 36 | — | — | 10.2 | — | 29.88 | — | 0 |
| 2004 | 2004-03-11 | 56.8 | 39.2 | 73.4 | 40 | — | — | 9.8 | — | 0.00 | — | 3 |
| 2005 | 2005-03-11 | 54.0 | 37.0 | 70.0 | 40 | 0.0 | — | 9.9 | — | 30.03 | — | 0 |
| 2006 | 2006-03-11 | 30.6 | 28.4 | 34.0 | 88 | — | — | 16.8 | — | 0.00 | — | 8 |
| 2007 | 2007-03-11 | 53.4 | 32.0 | 70.0 | 25 | 0.0 | — | 4.2 | — | 30.11 | — | 0 |
| 2008 | 2008-03-11 | 50.9 | 33.1 | 68.0 | 33 | 0.0 | — | 8.5 | — | 30.14 | — | 1 |
| 2009 | 2009-03-11 | 45.0 | 28.0 | 61.0 | 43 | 0.0 | — | 10.0 | — | 29.96 | — | 1 |
| 2010 | 2010-03-11 | 34.7 | 24.1 | 50.0 | 66 | 0.0 | — | 8.5 | — | 30.01 | — | 0 |
| 2011 | 2011-03-11 | 52.0 | 33.1 | 70.0 | 30 | 0.0 | — | 10.4 | — | 29.98 | — | 0 |
| 2012 | 2012-03-11 | 48.4 | 30.9 | 61.0 | 30 | 0.0 | — | 14.2 | — | 29.93 | — | 0 |
| 2013 | 2013-03-11 | 45.1 | 28.0 | 64.0 | 46 | 0.0 | — | 8.6 | — | 30.11 | — | 0 |
| 2014 | 2014-03-11 | 51.8 | 39.0 | 64.0 | 21 | 0.0 | — | 12.4 | — | 29.91 | — | 0 |
| 2015 | 2015-03-11 | 53.2 | 37.9 | 69.1 | 32 | 0.0 | — | 8.8 | — | 30.08 | — | 0 |
| 2016 | 2016-03-11 | 54.1 | 39.0 | 68.0 | 31 | 0.0 | — | 16.0 | — | 29.91 | — | 0 |
| 2017 | 2017-03-11 | 57.7 | 42.1 | 75.0 | 38 | 0.0 | — | 10.9 | — | 29.98 | — | 0 |
| 2018 | 2018-03-11 | 49.6 | 45.0 | 59.0 | 85 | — | — | 9.9 | — | 29.99 | — | — |
| 2019 | 2019-03-11 | 43.9 | 34.0 | 55.0 | 66 | — | — | 8.5 | — | 29.85 | — | — |
| 2020 | 2020-03-11 | 52.0 | 46.9 | 59.0 | 88 | — | — | 9.1 | — | 30.00 | — | — |
| 2021 | 2021-03-11 | 35.4 | 30.0 | 43.0 | 80 | — | — | 13.8 | — | 29.95 | — | — |
| 2022 | 2022-03-11 | 35.6 | 23.0 | 50.0 | 44 | 0.0 | — | 12.5 | — | 30.20 | — | 0 |
| 2023 | 2023-03-11 | 52.5 | 46.9 | 61.0 | 68 | — | — | 23.0 | — | 29.89 | — | 4 |
| 2024 | 2024-03-11 | 49.5 | 37.0 | 62.1 | 41 | 0.0 | — | 14.8 | — | 29.94 | — | 0 |
| 2025 | 2025-03-11 | 45.5 | 37.0 | 57.9 | 46 | — | — | 18.0 | — | 29.83 | — | 2 |